Location: *
(49.6619°S, 177.4603°W)
Time: 01:44:21
(UTC+00:00)

Cosmos 1408 Rocket - Pass Details

Date: 31 January 2023
Orbit: 601 x 628 km, 82.6° (Epoch: 20 March)

Event Time Altitude Azimuth Distance (km) Brightness Sun altitude
Rises 09:52:43 0° 186° (S) 2,967 8.2 -17.0°
Reaches altitude 10° 09:55:05 10° 179° (S) 2,050 7.1 -17.2°
Maximum altitude 09:59:26 44° 106° (ESE) 886 4.2 -17.6°
Enters shadow 10:00:58 32° 58° (ENE) 1,093 4.3 -17.7°
